Location: A�t �Alizem
(31.2076°N, 8.7872°W)
Time: 21:15:31
(UTC+00:00)

deb Explorer IX - Pass Details

Date: 23 June 2021
Orbit: 541 x 1234 km, 38.9° (Epoch: 01 August)

Event Time Altitude Azimuth Distance (km) Brightness Sun altitude
Exits shadow 02:14:52 25° 311° (NW) 1,568 ? -30.6°
Maximum altitude 02:17:28 39° 1° (N) 1,265 ? -30.3°
Drops below altitude 10° 02:23:31 10° 69° (ENE) 2,733 ? -29.7°
Sets 02:26:37 0° 76° (ENE) 3,800 ? -29.4°
